User: anonymous   Login
Location: Unspecified
(0.0000°N, 0.0000°E)
Time: 18:52:08
(UTC+00:00)
Language:

Resurs 1-3 - Orbit

View from above orbital plane
View from above orbital plane
View from above satellite
View from above satellite

Ground track
Ground track

The orbit data is extracted from the following two-line orbital elements,

1 23342U 94074A   18350.75846783  .00000035  00000-0  11675-4 0  9995
2 23342  98.0085  34.3334 0001834 106.0607 254.0807 14.79364792298739
Epoch (UTC): 16 December 2018 18:12:11
Eccentricity: 0.0001834
inclination: 98.0085°
perigee height: 630 km
apogee height: 632 km
right ascension of ascending node: 34.3334°
argument of perigee: 106.0607°
revolutions per day: 14.79364792
mean anomaly at epoch: 254.0807°
orbit number at epoch: 29873

The dashed part of the orbit path shows where the satellite is in the earth's shadow,  

DLR